KWIWEYAU3 Weather Reports


Display with metric or nautical units.
time (UTC)temp
F
wind
direction
speed
MPH
gust
MPH
rain 1hr
in
rain 24hr
in
rain mn
in
humidity
%
barometer
mb
20260906160516 76 0.0 1.0 0.00 0.01 0.01 79 1021.0
20260906155516 76 225 2.0 7.0 0.00 0.01 0.01 82 1020.8
20260906154516 75 0.0 3.0 0.00 0.01 0.01 83 1020.8
20260906153516 74 0.0 2.0 0.00 0.01 0.01 85 1020.8
20260906152516 73 315 1.0 3.0 0.00 0.01 0.01 88 1021.0
20260906151517 72 203 1.0 6.0 0.00 0.01 0.01 88 1021.0
20260906150516 72 270 1.0 5.0 0.00 0.01 0.01 90 1020.9
20260906145516 71 270 1.0 4.0 0.00 0.01 0.01 92 1020.9
20260906144517 70 248 1.0 5.0 0.00 0.01 0.01 95 1020.8
20260906143516 68 0.0 1.0 0.00 0.01 0.01 97 1020.7
20260906142516 68 0.0 3.0 0.00 0.01 0.01 97 1020.6
20260906141517 67 0.0 0.0 0.00 0.01 0.01 98 1020.6
20260906140517 66 203 1.0 2.0 0.00 0.01 0.01 98 1020.6
20260906135517 65 0.0 2.0 0.00 0.01 0.01 98 1020.8
20260906134516 64 0.0 4.0 0.00 0.01 0.01 98 1021.0
20260906133516 63 0.0 2.0 0.00 0.01 0.01 98 1021.0
20260906132536 62 0.0 1.0 0.00 0.01 0.01 98 1020.9
20260906131536 61 0.0 2.0 0.00 0.01 0.01 98 1020.8
20260906130537 61 0.0 2.0 0.00 0.01 0.01 98 1020.6
20260906125516 60 0.0 3.0 0.00 0.01 0.01 98 1020.5
20260906124517 59 0.0 0.0 0.00 0.01 0.01 98 1020.3
20260906123536 59 0.0 0.0 0.00 0.01 0.01 98 1020.3
20260906122516 58 0.0 0.0 0.00 0.01 0.01 98 1020.2
20260906121516 58 0.0 0.0 0.00 0.01 0.01 98 1020.2
20260906120516 58 0.0 0.0 0.00 0.01 0.01 98 1020.3
20260906115516 58 0.0 1.0 0.00 0.01 0.01 98 1020.2
20260906114516 58 0.0 1.0 0.00 0.01 0.01 98 1019.9
20260906113517 58 0.0 0.0 0.00 0.01 0.01 98 1019.8
20260906112516 58 0.0 0.0 0.00 0.01 0.01 98 1019.9
20260906111517 58 0.0 0.0 0.00 0.01 0.01 98 1019.7
20260906110516 58 0.0 0.0 0.01 0.01 0.01 98 1019.4
20260906105517 58 0.0 0.0 0.01 0.01 0.01 98 1019.4
20260906104516 58 0.0 0.0 0.01 0.01 0.01 98 1019.4
20260906103516 59 0.0 0.0 0.01 0.01 0.01 98 1019.4
20260906102517 59 0.0 0.0 0.01 0.01 0.01 98 1019.3
20260906101516 59 0.0 0.0 0.01 0.01 0.01 98 1019.3
20260906100517 59 0.0 0.0 0.00 0.00 0.00 98 1019.3
20260906095516 59 0.0 0.0 0.00 0.00 0.00 98 1019.4
20260906094516 59 0.0 1.0 0.00 0.00 0.00 98 1019.5
20260906093516 59 0.0 1.0 0.00 0.00 0.00 98 1019.3
20260906092516 59 0.0 0.0 0.00 0.00 0.00 98 1019.4
20260906091537 59 0.0 0.0 0.00 0.00 0.00 98 1019.3
20260906090516 60 0.0 0.0 0.00 0.00 0.00 98 1019.2
20260906085516 60 0.0 0.0 0.00 0.00 0.00 98 1019.2
20260906084516 60 0.0 0.0 0.00 0.00 0.00 98 1019.1
20260906083516 60 0.0 0.0 0.00 0.00 0.00 98 1019.1
20260906082536 60 0.0 1.0 0.00 0.00 0.00 98 1019.0
20260906081516 60 0.0 1.0 0.00 0.00 0.00 98 1019.1
20260906080516 60 0.0 1.0 0.00 0.00 0.00 98 1019.1
20260906075516 60 0.0 1.0 0.00 0.00 0.00 97 1019.0
20260906074516 60 0.0 0.0 0.00 0.00 0.00 98 1019.0
20260906073537 60 0.0 1.0 0.00 0.00 0.00 98 1019.1
20260906072516 59 0.0 0.0 0.00 0.00 0.00 97 1019.1
20260906071516 59 0.0 1.0 0.00 0.00 0.00 97 1019.2
20260906070516 59 0.0 0.0 0.00 0.00 0.00 97 1019.0
20260906065516 59 0.0 0.0 0.00 0.00 0.00 97 1019.1
20260906064516 59 0.0 0.0 0.00 0.00 0.00 97 1018.9
20260906063516 59 0.0 0.0 0.00 0.00 0.00 97 1018.9
20260906062536 59 0.0 0.0 0.00 0.00 0.00 97 1018.9
20260906061535 60 0.0 0.0 0.00 0.00 0.00 97 1018.7
20260906060515 60 0.0 0.0 0.00 0.00 0.00 97 1018.4
20260906055516 59 0.0 0.0 0.00 0.00 0.00 97 1018.3
20260906054516 60 0.0 0.0 0.00 0.00 0.00 97 1018.4
20260906053516 60 0.0 0.0 0.00 0.00 0.00 97 1018.5
20260906052516 60 0.0 0.0 0.00 0.00 0.00 97 1018.6
20260906051515 60 0.0 0.0 0.00 0.00 0.00 97 1018.6
20260906050536 60 0.0 0.0 0.00 0.00 0.00 97 1018.6
20260906045517 60 0.0 0.0 0.00 0.00 0.00 96 1018.3
20260906044517 60 0.0 0.0 0.00 0.00 0.00 97 1018.3
20260906043517 60 0.0 0.0 0.00 0.00 0.00 96 1018.1
20260906042517 60 0.0 0.0 0.00 0.00 0.00 96 1017.8
20260906041517 60 0.0 0.0 0.00 0.00 0.00 96 1017.7
20260906040517 61 0.0 0.0 0.00 0.00 0.00 96 1017.6
20260906035517 61 0.0 0.0 0.00 0.00 0.00 96 1017.6
20260906034517 62 0.0 0.0 0.00 0.00 0.00 96 1017.6
20260906033517 62 0.0 0.0 0.00 0.00 0.00 96 1017.9
20260906032517 63 0.0 0.0 0.00 0.00 0.00 96 1017.7
20260906031517 63 0.0 0.0 0.00 0.00 0.00 95 1017.5
20260906030538 64 0.0 0.0 0.00 0.00 0.00 95 1017.7
20260906025517 64 0.0 0.0 0.00 0.00 0.00 95 1017.6
20260906024517 64 0.0 0.0 0.00 0.00 0.00 95 1017.5
20260906023517 65 0.0 0.0 0.00 0.00 0.00 95 1017.5
20260906022517 65 0.0 0.0 0.00 0.00 0.00 95 1017.4
20260906021538 65 0.0 0.0 0.00 0.00 0.00 95 1017.4
20260906020517 65 0.0 0.0 0.00 0.00 0.00 94 1017.3
20260906015517 66 0.0 0.0 0.00 0.00 0.00 94 1017.2
20260906014517 66 0.0 0.0 0.00 0.00 0.00 93 1017.2
20260906013517 67 0.0 0.0 0.00 0.00 0.00 93 1017.1
20260906012517 67 0.0 0.0 0.00 0.00 0.00 93 1016.9
20260906011517 68 0.0 0.0 0.00 0.00 0.00 93 1016.8
20260906010516 68 0.0 0.0 0.00 0.00 0.00 90 1016.7
20260906005517 69 0.0 0.0 0.00 0.00 0.00 90 1016.9
20260906004517 70 0.0 0.0 0.00 0.00 0.00 88 1016.8
20260906003518 71 0.0 0.0 0.00 0.00 0.00 85 1016.8
20260906002517 73 0.0 0.0 0.00 0.00 0.00 83 1016.9
20260906001516 75 0.0 0.0 0.00 0.00 0.00 81 1017.0
20260906000537 78 0.0 0.0 0.00 0.00 0.00 77 1017.1
20260905235519 79 0.0 0.0 0.00 0.00 0.00 77 1017.0
20260905234517 79 0.0 1.0 0.00 0.00 0.00 78 1017.0
20260905233517 78 0.0 0.0 0.00 0.00 0.00 78 1017.1
20260905232516 77 0.0 1.0 0.00 0.00 0.00 82 1017.1
20260905231518 75 0.0 0.0 0.00 0.00 0.00 83 1017.1
20260905230517 74 0.0 2.0 0.00 0.00 0.00 83 1017.1
20260905225538 74 0.0 2.0 0.00 0.00 0.00 82 1017.1
20260905224536 75 135 1.0 3.0 0.00 0.00 0.00 81 1017.2
20260905223516 76 68 1.0 4.0 0.00 0.00 0.00 81 1017.2
20260905222517 76 113 1.0 5.0 0.00 0.00 0.00 80 1017.1
20260905221517 77 0 1.0 4.0 0.00 0.00 0.00 79 1017.1
20260905220517 76 68 1.0 2.0 0.00 0.00 0.00 80 1016.9
20260905215516 76 68 2.0 6.0 0.00 0.00 0.00 80 1016.7
20260905214516 76 23 1.0 4.0 0.00 0.00 0.00 81 1016.8
20260905213517 76 45 2.0 7.0 0.00 0.00 0.00 81 1016.9
20260905212516 75 0 2.0 5.0 0.00 0.00 0.00 82 1016.9
20260905211537 75 45 3.0 5.0 0.00 0.00 0.00 82 1017.1
20260905210536 75 68 2.0 5.0 0.00 0.00 0.00 83 1017.2
20260905205537 75 68 2.0 6.0 0.00 0.00 0.00 83 1017.2
20260905204517 75 0 1.0 4.0 0.00 0.00 0.00 85 1017.3
20260905203537 74 68 3.0 6.0 0.00 0.00 0.00 85 1017.2
20260905202516 73 0 1.0 4.0 0.00 0.00 0.00 88 1017.5
20260905201536 72 0 2.0 4.0 0.00 0.00 0.00 87 1017.5
20260905200538 72 90 2.0 4.0 0.00 0.00 0.00 89 1017.4
20260905195516 72 45 1.0 2.0 0.00 0.00 0.00 89 1017.5
20260905194517 71 23 1.0 3.0 0.00 0.00 0.00 89 1017.5
20260905193517 71 23 2.0 6.0 0.00 0.00 0.00 89 1017.4
20260905192537 71 23 2.0 5.0 0.00 0.00 0.00 89 1017.4
20260905191517 71 90 1.0 4.0 0.00 0.00 0.00 89 1017.4
20260905190516 71 135 1.0 3.0 0.00 0.00 0.00 90 1017.4
20260905185517 71 90 1.0 4.0 0.00 0.00 0.00 90 1017.3
20260905184516 71 68 1.0 3.0 0.00 0.00 0.00 90 1017.3
20260905183517 71 23 3.0 6.0 0.00 0.00 0.00 89 1017.5
20260905182537 71 23 2.0 4.0 0.00 0.00 0.00 90 1017.5
20260905181517 71 23 2.0 5.0 0.00 0.00 0.00 89 1017.6
20260905180517 71 23 2.0 4.0 0.00 0.00 0.00 89 1017.7
20260905175517 71 23 1.0 4.0 0.00 0.00 0.00 90 1017.8
20260905174516 71 90 2.0 6.0 0.00 0.00 0.00 90 1017.6
20260905173516 70 23 2.0 4.0 0.00 0.00 0.00 90 1017.6
20260905172516 70 90 1.0 5.0 0.00 0.00 0.00 90 1017.3
20260905171517 70 45 3.0 7.0 0.00 0.00 0.00 90 1017.4
20260905170516 70 23 3.0 7.0 0.00 0.00 0.00 90 1017.6
20260905165517 70 68 2.0 7.0 0.00 0.00 0.00 90 1017.7
20260905164516 70 68 3.0 8.0 0.00 0.00 0.00 90 1017.5
20260905163516 71 90 1.0 6.0 0.00 0.00 0.00 91 1017.4
20260905162536 70 113 1.0 5.0 0.00 0.00 0.00 91 1017.6
20260905161517 70 68 1.0 5.0 0.00 0.00 0.00 91 1017.5